Погода в Бухтах

Россия / Республика Дагестан     42°14′25″N   46°59′05″E
темп.,
°C
ветер,
м/с
пор.,
м/с
влажн.,
%
обл.,
%
осадки,
мм/ч
давл.,
гПа
погр.,
м
26 июня, вс
вс2600:00+11ююз8985100 2.5 1012240
03:00+10юз2281100 8.2 101215
06:00+13ююз3382100 1.9 101062
09:00+17св216792 1.9 1007593
12:00+18ссз226290 2.3 1007751
15:00+18ссв437442 5.3 1006513
18:00+16ссв3390100 3.7 1007256
21:00+12зюз1190100 5.8 101031
27 июня, пн
пн2700:00+12юз118720 0.0 101120
03:00+10юз21790 0.0 101111
06:00+14юз11710 0.0 101145
09:00+18св21600 0.0 1010452
12:00+20ссв32697 0.4 1009808
15:00+19св327749 5.1 1010651
18:00+16всв229051 4.1 1012324
21:00+13з1193100 5.6 101310
28 июня, вт
вт2800:00+13зюз2284100 0.9 101211
03:00+11зюз22771 1.4 101212
06:00+14зсз11750 0.0 101177
09:00+17с32730 0.0 1010463
12:00+20ссв327020 0.5 10101037
15:00+18св338098 1.9 1011768
18:00+14ссв128988 0.6 1014193
21:00+13зсз219341 0.6 101623
29 июня, ср
ср2900:00+12с119195 0.0 101649
03:00+12ююв019081 0.0 101523
06:00+13всв118674 0.0 1015105
09:00+16св227764 0.1 1015793
12:00+16всв2277100 0.4 1015735
15:00+15св228287 2.1 1015534
18:00+15св118284 0.6 1015382
21:00+12ссз119596 2.2 101732
30 июня, чт
чт3000:00+12ююз1192100 0.7 101615
03:00+11юз118961 0.7 101610
06:00+13ююз11820 0.0 101589
09:00+16св318065 0.1 1014688
12:00+16ссв3279100 1.3 1013666
15:00+14ссв3395100 3.6 1014403
18:00+12ссв2299100 2.4 1015190
21:00+12ссв229899 4.3 1017225